Temp
82 82 82 82 83 83 83 83 84 84 83 85 85 85 84 85 86 86 86 86 85 85 85 84 84 84 85 84 84 84 84 84 85 86 85 85 85 85 85 85 85 84
82 82 82 83 83 83 83 84 83 83 83 83 85 85 85 85 86 86 85 85 85 85 85 85 84 84 84 85 84 84 84 84 84 87 84 84 85 85 86 85 85 85
83 82 83 83 84 83 85 85 84 84 84 85 85 85 85 86 85 85 85 85 85 86 85 85 85 84 84 84 84 84 85 83 83 87 85 84 85 85 85 88 87 86
82 83 84 84 85 84 85 84 84 84 85 84 85 86 86 86 85 85 84 84 85 85 86 86 85 86 85 85 84 84 85 84 85 85 84 85 85 85 85 86 86 86
83 83 84 85 85 84 84 84 85 85 85 85 86 85 84 84 84 85 85 84 84 85 85 85 85 85 85 84 84 84 84 85 85 84 84 84 84 84 85 85 84 84
83 83 83 84 84 84 84 84 84 85 85 86 85 86 85 85 84 85 85 85 86 86 86 87 86 86 86 85 84 84 85 86 86 84 83 83 85 86 86 85 84 83
84 83 84 85 85 85 84 84 84 84 86 86 85 85 86 85 84 84 84 85 86 85 86 85 84 85 85 85 84 83 84 84 85 84 83 84 84 84 86 85 83 83
84 85 85 85 85 85 84 85 85 84 85 85 85 85 85 86 85 86 85 85 86 85 84 85 84 84 86 85 84 83 84 85 84 83 83 83 84 83 84 85 84 83
85 85 85 85 85 86 86 86 86 86 86 85 86 87 86 86 86 86 84 84 84 84 84 84 84 84 85 85 84 83 83 85 85 84 83 83 83 83 84 85 84 83
84 85 86 86 86 86 87 88 88 87 86 86 86 88 86 85 86 86 85 83 83 83 83 84 84 84 85 85 84 84 84 83 84 84 84 84 84 85 85 84 84 83
85 86 85 85 86 87 88 88 89 89 87 86 87 87 88 86 85 85 84 83 84 84 83 83 84 84 84 85 85 85 85 85 84 84 84 84 84 84 84 84 84 84
85 86 86 86 87 88 88 88 89 88 88 87 88 87 87 88 86 85 85 83 84 84 84 84 84 84 84 84 86 86 85 85 85 85 85 85 85 85 85 85 85 85
85 85 85 87 86 87 88 88 88 89 89 88 88 87 87 88 88 86 85 85 84 85 85 84 84 84 84 84 84 84 84 84 85 85 85 85 85 86 87 86 86 86
85 85 86 85 85 85 86 88 88 88 87 88 87 87 88 88 88 87 87 86 85 85 85 85 85 84 84 84 84 84 85 84 85 85 85 85 85 86 87 88 87 87
84 86 86 85 85 84 85 86 86 86 86 86 86 87 88 89 89 88 87 85 86 85 85 85 85 85 85 85 84 84 85 85 85 85 85 85 85 86 87 86 87 88
83 84 83 84 83 83 83 84 86 86 87 86 85 86 86 86 86 86 88 86 85 85 85 85 85 86 79 70 74 84 85 85 85 84 84 85 84 84 86 86 87 89
83 83 83 82 83 83 83 83 83 84 84 83 84 84 84 84 84 85 86 87 86 86 86 85 86 85 71 66 67 69 82 85 84 84 84 84 84 83 83 85 87 87
83 83 82 82 82 82 82 82 83 83 83 83 83 83 83 84 84 84 84 86 87 87 87 87 87 75 67 66 66 65 70 83 86 85 85 85 85 84 85 85 85 87
83 82 82 82 81 82 82 82 82 82 82 82 83 83 84 82 83 84 84 85 86 85 86 88 88 73 66 65 65 64 64 73 86 86 86 86 85 85 85 84 85 85
82 82 82 82 82 82 82 82 82 81 83 85 85 83 82 83 84 83 84 83 84 84 84 87 87 74 65 63 63 62 63 67 84 85 86 86 85 86 86 85 84 84
83 82 82 82 82 82 82 81 81 82 82 84 85 84 83 82 83 83 83 84 85 86 85 86 89 71 63 61 61 60 61 65 82 84 84 85 85 86 85 85 85 85
83 83 82 82 82 82 81 81 81 81 81 83 84 85 85 86 85 85 85 85 85 86 86 85 88 69 63 61 59 60 60 74 80 81 83 84 85 85 85 85 85 85
84 84 83 82 82 82 81 81 81 81 82 83 83 84 86 85 85 86 85 86 85 85 85 85 87 74 62 59 58 58 62 78 80 81 82 83 83 84 85 85 85 86
84 84 83 82 82 82 82 83 84 84 84 83 83 84 85 87 87 86 87 86 87 86 87 85 87 76 60 59 57 56 65 79 80 81 81 81 82 84 85 84 85 80
85 85 84 84 82 83 84 84 84 84 85 85 86 86 86 86 86 86 87 87 89 89 78 83 87 80 60 59 57 56 66 80 81 81 80 81 83 83 84 85 84 81
86 84 84 84 83 83 84 84 85 86 86 86 86 87 86 87 87 87 87 87 89 88 89 87 87 88 76 57 57 55 58 78 82 81 80 81 82 82 83 83 84 84
MSLP
1015.63 1015.91 1016.31 1016.59 1016.75 1016.83 1017.11 1017.47 1017.59 1017.91 1018.11 1018.19 1018.47 1018.55 1018.67 1018.59 1018.67 1018.83 1018.95 1019.07 1019.27 1019.47 1019.63 1019.79 1019.95 1020.19 1020.31 1020.47 1020.63 1020.83 1020.99 1021.11 1021.11 1021.11 1021.31 1021.47 1021.67 1021.75 1021.95 1022.03 1022.11 1022.23
1015.35 1015.55 1015.83 1016.11 1016.43 1016.55 1016.71 1016.87 1017.23 1017.47 1017.75 1017.87 1017.91 1018.07 1018.19 1018.35 1018.47 1018.67 1018.87 1019.03 1019.11 1019.31 1019.39 1019.59 1019.75 1019.95 1020.11 1020.23 1020.43 1020.67 1020.87 1020.91 1021.15 1020.79 1021.19 1021.35 1021.43 1021.47 1021.67 1021.75 1021.91 1021.87
1015.03 1015.35 1015.63 1015.95 1016.07 1016.23 1016.35 1016.55 1016.83 1017.07 1017.35 1017.43 1017.59 1017.79 1017.95 1018.03 1018.35 1018.47 1018.63 1018.79 1018.99 1019.07 1019.23 1019.35 1019.55 1019.67 1019.83 1019.95 1020.11 1020.39 1020.59 1020.75 1020.99 1020.71 1020.91 1021.19 1021.11 1021.31 1021.31 1021.31 1021.51 1021.75
1014.75 1014.91 1015.11 1015.35 1015.51 1015.87 1016.03 1016.39 1016.63 1016.87 1016.99 1017.31 1017.47 1017.47 1017.63 1017.83 1018.07 1018.39 1018.55 1018.67 1018.87 1018.95 1018.95 1019.11 1019.27 1019.39 1019.55 1019.71 1019.91 1020.11 1020.19 1020.39 1020.39 1020.51 1020.83 1020.83 1020.87 1020.95 1021.11 1021.15 1021.27 1021.43
1014.35 1014.63 1014.75 1014.95 1015.11 1015.39 1015.71 1016.11 1016.35 1016.55 1016.71 1016.83 1016.99 1017.23 1017.51 1017.75 1017.99 1018.19 1018.35 1018.51 1018.63 1018.79 1018.83 1018.95 1019.03 1019.19 1019.31 1019.51 1019.67 1019.99 1020.03 1020.19 1020.15 1020.39 1020.67 1020.83 1020.67 1020.79 1020.87 1020.99 1021.31 1021.51
1013.87 1014.11 1014.39 1014.63 1014.83 1015.15 1015.47 1015.71 1015.91 1016.11 1016.31 1016.59 1016.75 1016.83 1017.11 1017.35 1017.67 1017.87 1018.03 1018.27 1018.31 1018.47 1018.59 1018.63 1018.83 1018.95 1019.07 1019.31 1019.51 1019.71 1019.83 1019.95 1019.91 1020.19 1020.47 1020.67 1020.59 1020.43 1020.55 1020.75 1021.07 1021.35
1013.51 1013.83 1014.15 1014.27 1014.59 1014.75 1015.11 1015.31 1015.51 1015.71 1015.91 1016.03 1016.27 1016.63 1016.71 1017.07 1017.35 1017.51 1017.67 1017.87 1018.03 1018.15 1018.31 1018.47 1018.63 1018.79 1018.83 1019.07 1019.35 1019.59 1019.63 1019.75 1019.79 1019.99 1020.31 1020.31 1020.39 1020.47 1020.35 1020.55 1020.83 1021.03
1012.99 1013.23 1013.55 1013.91 1014.27 1014.51 1014.79 1014.99 1015.19 1015.39 1015.55 1015.83 1016.15 1016.19 1016.35 1016.67 1016.91 1017.07 1017.27 1017.51 1017.75 1017.91 1018.07 1018.15 1018.31 1018.55 1018.63 1018.83 1019.15 1019.39 1019.51 1019.47 1019.67 1019.83 1020.03 1020.15 1020.11 1020.31 1020.27 1020.31 1020.51 1020.79
1012.43 1012.83 1013.15 1013.55 1013.91 1014.07 1014.35 1014.51 1014.71 1014.95 1015.15 1015.55 1015.79 1015.91 1016.03 1016.23 1016.47 1016.63 1016.91 1017.15 1017.43 1017.59 1017.79 1017.99 1018.11 1018.27 1018.35 1018.55 1018.79 1019.03 1019.27 1019.27 1019.23 1019.47 1019.67 1019.87 1019.99 1020.03 1020.03 1020.03 1020.31 1020.47
1012.07 1012.31 1012.71 1013.07 1013.47 1013.55 1013.83 1013.95 1014.15 1014.47 1014.67 1015.07 1015.35 1015.47 1015.75 1015.87 1016.03 1016.27 1016.55 1016.87 1017.15 1017.35 1017.51 1017.67 1017.83 1017.95 1018.07 1018.19 1018.39 1018.59 1018.83 1019.03 1019.07 1019.15 1019.23 1019.31 1019.47 1019.55 1019.67 1019.83 1019.99 1020.19
1011.67 1011.95 1012.31 1012.63 1012.87 1012.99 1013.27 1013.47 1013.71 1013.95 1014.23 1014.59 1014.87 1015.15 1015.27 1015.51 1015.79 1015.87 1016.23 1016.51 1016.83 1016.99 1017.15 1017.27 1017.39 1017.55 1017.83 1017.87 1017.95 1018.07 1018.31 1018.51 1018.67 1018.79 1018.87 1018.91 1018.99 1019.11 1019.27 1019.47 1019.63 1019.75
1011.19 1011.51 1011.79 1012.03 1012.23 1012.47 1012.71 1012.95 1013.23 1013.51 1013.79 1014.07 1014.31 1014.71 1014.91 1015.03 1015.31 1015.55 1015.75 1016.07 1016.23 1016.39 1016.55 1016.75 1016.91 1017.11 1017.35 1017.51 1017.63 1017.71 1017.91 1018.07 1018.19 1018.35 1018.43 1018.51 1018.59 1018.71 1018.87 1018.99 1019.19 1019.31
1010.63 1010.91 1011.11 1011.43 1011.75 1011.95 1012.15 1012.47 1012.75 1012.99 1013.27 1013.63 1013.75 1014.11 1014.47 1014.71 1014.79 1015.11 1015.23 1015.51 1015.71 1015.91 1016.11 1016.27 1016.47 1016.67 1016.91 1017.11 1017.31 1017.43 1017.59 1017.79 1017.91 1017.99 1018.11 1018.15 1018.19 1018.27 1018.35 1018.47 1018.63 1018.79
1009.95 1010.23 1010.63 1010.95 1011.19 1011.51 1011.79 1011.99 1012.27 1012.55 1012.83 1013.03 1013.31 1013.75 1013.99 1014.15 1014.35 1014.59 1014.75 1014.95 1015.19 1015.43 1015.59 1015.75 1016.03 1016.27 1016.47 1016.67 1016.83 1016.99 1017.23 1017.39 1017.55 1017.71 1017.83 1017.87 1017.87 1017.91 1017.95 1018.03 1018.15 1018.27
1009.39 1009.79 1010.11 1010.55 1010.91 1011.23 1011.51 1011.71 1011.91 1012.15 1012.39 1012.67 1012.99 1013.23 1013.35 1013.51 1013.71 1013.99 1014.39 1014.67 1014.79 1015.03 1015.23 1015.39 1015.63 1015.79 1015.87 1016.07 1016.39 1016.63 1016.75 1016.99 1017.15 1017.31 1017.47 1017.67 1017.67 1017.67 1017.63 1017.71 1017.75 1017.79
1008.99 1009.39 1009.79 1010.19 1010.67 1010.99 1011.23 1011.43 1011.63 1011.87 1012.11 1012.43 1012.67 1012.83 1013.03 1013.23 1013.47 1013.67 1013.91 1014.27 1014.59 1014.75 1014.87 1015.03 1015.15 1015.11 1015.19 1015.51 1015.75 1015.99 1016.31 1016.51 1016.67 1016.87 1017.03 1017.23 1017.43 1017.55 1017.47 1017.39 1017.39 1017.39
1008.71 1009.15 1009.51 1009.95 1010.19 1010.55 1010.91 1011.19 1011.43 1011.59 1011.87 1012.15 1012.39 1012.59 1012.83 1013.03 1013.27 1013.55 1013.67 1013.75 1013.99 1014.23 1014.51 1014.59 1014.55 1014.47 1014.71 1015.19 1015.51 1015.75 1015.91 1016.15 1016.39 1016.55 1016.67 1016.87 1017.03 1017.23 1017.35 1017.23 1017.11 1017.07
1008.27 1008.75 1009.23 1009.59 1009.91 1010.27 1010.51 1010.75 1011.07 1011.39 1011.67 1011.87 1012.15 1012.43 1012.59 1012.71 1013.03 1013.23 1013.31 1013.35 1013.47 1013.67 1013.87 1013.91 1013.87 1013.87 1014.35 1014.75 1015.11 1015.47 1015.71 1015.79 1015.91 1016.15 1016.31 1016.43 1016.51 1016.67 1016.71 1016.83 1016.87 1016.87
1007.91 1008.39 1008.79 1009.23 1009.51 1009.75 1010.07 1010.43 1010.79 1011.11 1011.39 1011.63 1011.87 1011.91 1012.19 1012.55 1012.71 1012.83 1012.99 1013.03 1013.15 1013.39 1013.43 1013.27 1013.31 1013.35 1013.91 1014.27 1014.67 1015.07 1015.43 1015.67 1015.59 1015.67 1015.87 1015.91 1015.99 1016.11 1016.23 1016.39 1016.47 1016.63
1007.51 1007.95 1008.43 1008.71 1008.99 1009.39 1009.71 1010.11 1010.43 1010.75 1010.83 1010.95 1011.23 1011.55 1011.91 1012.15 1012.31 1012.51 1012.59 1012.75 1012.83 1012.95 1012.99 1012.87 1012.87 1012.91 1013.43 1013.79 1014.23 1014.67 1015.03 1015.47 1015.31 1015.35 1015.39 1015.43 1015.51 1015.59 1015.67 1015.87 1016.03 1016.27
1007.19 1007.59 1008.03 1008.35 1008.63 1008.99 1009.39 1009.75 1010.03 1010.27 1010.55 1010.63 1010.79 1011.11 1011.47 1011.75 1011.83 1012.07 1012.15 1012.27 1012.35 1012.43 1012.63 1012.63 1012.35 1012.47 1012.99 1013.39 1013.83 1014.27 1014.67 1015.15 1014.99 1014.99 1015.03 1015.03 1014.99 1015.03 1015.15 1015.27 1015.43 1015.63
1006.67 1007.19 1007.59 1007.91 1008.27 1008.63 1009.07 1009.39 1009.63 1009.83 1010.15 1010.19 1010.43 1010.55 1010.67 1010.91 1011.19 1011.35 1011.67 1011.83 1011.79 1011.91 1012.15 1012.27 1011.87 1012.07 1012.55 1012.99 1013.39 1013.87 1014.43 1014.79 1014.67 1014.79 1014.79 1014.75 1014.67 1014.63 1014.67 1014.71 1014.87 1015.07
1006.11 1006.63 1007.11 1007.43 1007.75 1008.23 1008.59 1008.87 1009.19 1009.43 1009.63 1009.71 1010.19 1010.27 1010.47 1010.63 1010.71 1010.87 1010.95 1011.15 1011.31 1011.47 1011.75 1011.71 1011.55 1011.63 1012.11 1012.59 1013.07 1013.63 1014.27 1014.27 1014.27 1014.35 1014.43 1014.43 1014.35 1014.23 1014.27 1014.27 1014.35 1014.47
1005.59 1006.03 1006.55 1006.91 1007.27 1007.67 1007.99 1008.23 1008.43 1008.67 1008.99 1009.15 1009.67 1009.95 1010.11 1010.07 1010.15 1010.35 1010.39 1010.47 1010.71 1010.87 1010.87 1011.23 1011.11 1011.15 1011.63 1012.11 1012.67 1013.23 1013.47 1013.67 1013.79 1013.99 1014.03 1014.07 1013.99 1013.87 1013.83 1013.87 1013.83 1014.03
1005.11 1005.51 1005.95 1006.39 1006.83 1007.15 1007.39 1007.75 1007.99 1008.19 1008.31 1008.55 1008.87 1009.19 1009.43 1009.47 1009.63 1009.83 1009.91 1009.91 1009.91 1010.07 1010.23 1010.63 1010.59 1010.67 1011.07 1011.55 1012.07 1012.59 1012.99 1012.99 1013.15 1013.39 1013.71 1013.63 1013.63 1013.67 1013.47 1013.51 1013.51 1013.55
1004.63 1005.15 1005.51 1005.91 1006.35 1006.63 1006.83 1007.07 1007.23 1007.59 1007.87 1008.23 1008.47 1008.63 1008.95 1009.03 1009.15 1009.31 1009.55 1009.55 1009.43 1009.59 1009.71 1009.87 1010.19 1010.19 1010.47 1010.99 1011.47 1011.99 1012.35 1012.43 1012.51 1012.99 1013.19 1013.19 1013.23 1013.31 1013.43 1013.27 1013.19 1013.23
Wind_Speed
13 12 13 12 11 11 11 11 11 11 10 9 9 9 9 8 8 8 8 7 8 8 7 7 7 7 7 7 7 6 6 7 7 6 7 7 6 7 7 7 6 5
15 14 12 11 10 9 9 10 10 11 10 10 9 8 8 7 8 8 8 8 8 8 8 8 8 8 8 7 7 7 6 7 8 6 6 8 7 7 8 8 8 6
15 14 14 15 13 14 15 12 11 10 10 10 9 8 8 8 8 8 8 8 8 8 8 8 8 8 8 8 7 7 7 7 8 7 7 7 7 7 7 7 7 8
16 16 15 16 15 14 13 11 11 10 10 9 10 9 8 7 8 9 8 9 8 8 8 8 9 8 9 9 8 7 7 7 7 7 7 6 6 7 7 6 6 6
17 16 15 14 14 13 12 12 13 12 12 11 10 9 8 8 8 9 9 9 9 9 8 9 8 9 8 8 8 7 7 7 7 7 8 8 7 7 6 6 6 6
16 15 15 14 14 13 13 14 14 13 13 12 11 10 10 10 10 10 10 10 10 10 10 9 9 9 9 8 8 7 7 7 7 8 9 9 8 7 6 6 6 7
17 16 17 15 15 14 14 14 13 13 12 12 10 11 10 11 11 11 11 11 11 10 11 10 9 9 8 7 8 8 8 8 8 9 9 9 8 9 8 7 7 7
18 16 16 15 16 15 15 14 13 12 12 11 12 11 11 12 12 11 10 11 11 11 11 10 9 9 9 8 8 9 9 7 8 10 10 10 9 10 9 7 7 8
17 16 16 17 18 16 17 16 14 13 12 12 13 11 11 12 12 12 11 11 11 11 10 10 10 9 9 9 9 10 10 9 9 9 10 10 10 10 8 7 8 8
17 16 18 18 18 16 17 17 15 14 13 13 13 12 12 11 12 12 11 11 11 11 11 10 10 10 10 10 10 10 10 10 9 9 10 10 10 9 9 8 9 8
18 17 18 19 18 16 18 17 16 14 13 14 14 13 13 12 11 12 11 11 11 12 12 12 12 11 11 11 10 9 10 10 10 10 10 11 10 9 8 8 8 9
19 18 19 20 19 18 18 17 15 15 14 13 14 14 14 13 13 12 12 12 13 13 12 12 11 11 11 11 11 11 10 10 10 10 10 10 10 10 9 9 9 9
18 18 18 18 17 17 15 15 15 15 15 14 14 15 14 14 13 14 12 13 13 13 13 12 12 11 11 11 11 11 11 11 11 11 11 10 10 10 10 10 10 10
18 17 17 16 15 15 15 15 15 15 15 14 13 15 15 15 15 14 13 13 13 13 13 12 11 11 11 11 11 12 11 11 11 11 11 11 10 10 10 10 10 10
16 15 15 14 15 15 15 15 15 14 14 13 13 14 13 14 14 14 13 13 13 13 12 12 12 12 11 11 12 12 12 12 12 12 11 11 11 11 10 11 11 10
15 14 14 15 14 14 14 14 14 14 14 14 14 14 13 12 13 13 13 13 13 13 13 11 11 11 12 16 13 11 11 10 10 11 11 11 10 10 11 11 11 11
14 14 13 14 14 13 13 14 14 13 13 13 13 13 14 13 13 14 14 13 14 14 14 12 12 11 15 15 16 15 12 11 11 10 10 11 11 11 11 11 11 11
15 15 14 14 14 14 14 14 14 13 13 13 13 14 12 12 13 14 14 14 13 14 14 14 13 14 15 16 17 17 15 12 11 10 10 11 11 12 11 10 11 10
15 15 15 15 15 15 14 13 14 14 14 13 15 14 13 14 14 14 15 14 14 14 14 15 14 14 16 17 17 17 18 15 12 11 11 11 11 12 12 11 10 10
15 15 15 15 14 14 14 14 14 15 15 14 13 13 13 13 15 16 14 14 14 14 14 14 14 13 17 18 18 18 18 15 13 14 13 12 13 12 11 12 11 10
15 15 15 15 14 14 14 14 15 14 15 14 13 14 14 14 15 15 14 14 14 14 13 13 14 15 15 18 18 18 18 15 12 13 13 13 13 13 13 12 12 11
16 16 15 15 15 15 15 15 14 14 15 14 13 13 12 12 13 13 14 15 15 15 15 15 14 15 16 17 18 17 17 11 11 12 14 14 13 13 13 12 12 12
17 17 16 16 16 16 16 15 14 14 13 12 13 13 13 13 13 14 13 14 15 14 15 14 14 14 16 17 17 17 13 10 11 11 12 14 14 13 12 12 12 12
16 17 16 16 15 16 16 15 14 13 14 12 13 14 14 14 13 13 13 13 15 16 15 15 15 12 17 17 17 18 16 11 10 11 13 13 13 13 12 11 13 15
16 16 15 16 15 15 15 15 15 14 13 13 13 14 14 12 12 12 13 13 14 16 15 16 15 12 17 18 19 20 17 11 11 11 12 13 12 12 12 11 11 11
15 15 15 15 14 14 14 14 13 13 14 13 12 12 12 12 12 12 14 12 12 14 13 15 15 14 12 19 19 20 21 13 11 11 13 13 12 12 11 10 11 10
Wind_Direction
193 193 196 197 199 199 197 195 199 200 201 204 208 210 212 211 204 205 209 208 210 214 214 211 207 208 210 210 210 218 227 232 236 231 231 233 239 242 242 239 236 236
195 194 195 197 198 194 197 195 195 198 199 200 208 207 207 203 203 206 210 213 211 215 213 212 210 209 209 211 205 212 220 226 233 227 226 226 237 241 239 238 239 237
196 195 195 197 201 201 205 201 199 200 204 206 204 205 207 205 208 205 210 212 216 218 212 212 211 209 209 210 205 210 219 220 228 229 227 228 233 237 242 242 239 229
198 199 200 203 204 203 201 198 195 198 205 201 204 206 206 205 202 205 208 209 216 217 216 213 215 213 210 210 208 217 219 221 226 228 235 234 230 237 240 239 242 238
197 198 201 202 203 200 195 198 202 200 204 206 202 198 193 195 199 207 208 210 213 219 215 216 213 216 210 210 208 219 220 225 221 221 237 240 234 233 235 230 230 234
196 197 198 199 198 194 195 201 202 203 203 203 200 197 200 198 203 208 210 213 215 219 222 220 216 216 213 211 211 218 224 229 224 220 231 237 236 228 225 221 226 232
193 194 198 199 200 198 201 204 204 204 203 206 197 200 198 199 202 206 208 212 219 220 222 220 216 214 209 209 212 218 220 228 233 234 233 238 233 236 227 216 222 230
195 196 198 200 202 202 203 203 203 201 200 197 201 200 198 203 204 207 208 211 215 219 219 220 217 212 212 209 214 217 219 217 224 228 233 239 240 240 232 231 219 224
193 195 195 197 200 202 205 205 205 204 199 200 207 208 203 207 208 208 206 205 211 216 216 218 218 218 216 217 218 217 218 221 221 220 223 229 228 229 227 222 229 227
191 194 195 197 200 204 206 206 205 202 199 202 205 209 206 205 208 209 205 202 206 211 213 216 216 217 217 217 220 219 220 221 221 222 225 228 229 231 225 220 227 233
193 194 195 198 201 203 206 205 205 202 199 202 204 209 210 204 204 206 207 203 208 210 212 213 215 214 216 222 223 222 222 224 224 224 227 230 232 233 229 226 229 234
194 195 198 199 200 202 203 202 202 202 201 200 203 207 208 209 204 203 206 206 209 211 211 212 211 212 214 218 222 223 222 224 226 227 229 230 231 232 229 226 232 235
193 195 197 199 198 200 199 199 201 202 202 203 202 206 207 209 209 207 206 207 208 210 213 212 211 211 213 214 218 221 222 223 227 229 232 232 233 232 232 230 231 233
192 193 195 196 195 195 197 198 199 201 203 204 202 205 209 211 211 209 207 207 210 211 213 213 212 212 212 213 214 216 219 222 223 228 231 232 235 233 233 234 232 232
187 189 191 190 191 191 194 196 198 200 200 201 201 205 209 212 212 212 210 210 211 212 212 213 216 217 216 212 211 214 218 223 223 224 226 231 235 235 233 233 236 236
180 183 186 188 188 190 193 195 198 199 200 201 202 204 207 209 212 212 213 211 209 210 210 212 216 219 214 205 206 213 214 220 222 224 225 230 232 235 237 235 236 237
179 184 184 186 190 193 193 196 199 199 201 202 204 206 208 207 206 209 212 214 214 213 212 213 217 219 207 199 204 209 216 221 220 222 221 223 228 232 237 238 239 237
188 188 189 190 190 193 194 196 198 200 201 200 201 204 204 205 208 210 215 218 218 217 216 217 220 217 200 198 201 204 209 221 227 227 226 225 228 231 234 237 237 238
183 185 187 189 192 193 194 194 196 199 200 202 206 208 208 209 213 215 217 217 218 218 221 221 225 210 197 198 200 199 204 212 229 233 230 231 230 229 231 232 233 234
182 185 188 191 190 191 193 195 196 201 204 206 208 207 208 210 212 216 218 216 217 220 223 226 227 211 196 199 198 198 200 201 226 230 234 236 234 232 230 230 229 230
184 186 190 190 190 190 192 196 197 200 202 205 207 207 206 207 213 216 218 218 219 220 224 228 230 217 196 197 198 198 197 196 218 227 234 238 237 235 234 233 232 230
185 188 189 189 190 191 194 197 198 199 200 202 207 210 212 213 214 217 217 217 219 221 225 230 233 212 197 196 197 197 189 197 213 221 229 236 238 236 235 234 232 232
188 190 191 191 191 193 196 197 198 199 201 200 206 211 213 214 216 215 217 221 221 220 224 229 234 212 195 196 193 188 182 206 209 220 227 231 236 237 236 234 231 230
189 190 191 191 191 195 196 200 201 204 204 200 205 209 215 217 217 219 219 220 221 222 220 225 232 210 187 193 189 181 187 201 208 216 226 228 233 234 235 235 232 223
187 189 191 190 193 195 197 200 202 203 204 203 207 211 218 219 218 220 220 220 223 225 218 223 233 220 187 191 188 184 190 206 210 218 223 228 229 234 232 235 237 222
188 190 192 192 193 195 199 202 202 203 204 203 207 211 215 218 217 219 221 223 223 224 225 223 229 233 195 189 187 187 190 201 212 215 226 226 228 231 235 232 231 233